| time (UTC) | temp C | wind direction | speed KPH | gust KPH | rain 1hr cm | rain 24hr cm | rain mn cm | humidity % | barometer mb |
| 20260904145020 | 26 | 293 | 1.6 | 6.4 | 0.00 | 0.08 | 0.00 | 49 | 1013.3 |
| 20260904144019 | 26 | 315 | 1.6 | 6.4 | 0.00 | 0.08 | 0.00 | 43 | 1013.4 |
| 20260904143018 | 25 | 315 | 4.8 | 16.1 | 0.00 | 0.08 | 0.00 | 44 | 1013.3 |
| 20260904142018 | 25 | 315 | 3.2 | 14.5 | 0.00 | 0.08 | 0.00 | 40 | 1013.2 |
| 20260904141018 | 25 | 315 | 4.8 | 16.1 | 0.00 | 0.08 | 0.00 | 30 | 1013.1 |
| 20260904140019 | 25 | 293 | 4.8 | 8.0 | 0.00 | 0.08 | 0.00 | 18 | 1013.1 |
| 20260904135018 | 25 | 293 | 4.8 | 9.7 | 0.00 | 0.08 | 0.00 | 100 | 1013.0 |
| 20260904134019 | 24 | 293 | 6.4 | 12.9 | 0.00 | 0.08 | 0.00 | 100 | 1013.1 |
| 20260904133019 | 24 | 338 | 3.2 | 9.7 | 0.00 | 0.08 | 0.00 | 100 | 1013.1 |
| 20260904132019 | 23 | 0 | 3.2 | 6.4 | 0.00 | 0.08 | 0.00 | 100 | 1013.2 |
| 20260904131229 | 23 | 0 | 1.6 | 4.8 | 0.00 | 0.08 | 0.00 | 100 | 1013.3 |
| 20260904130018 | 21 | 0.0 | 3.2 | 0.00 | 0.08 | 0.00 | 100 | 1013.3 | |
| 20260904125019 | 21 | 0 | 3.2 | 4.8 | 0.00 | 0.08 | 0.00 | 100 | 1013.3 |
| 20260904124019 | 21 | 0 | 1.6 | 4.8 | 0.00 | 0.08 | 0.00 | 100 | 1013.4 |
| 20260904123019 | 21 | 0.0 | 3.2 | 0.00 | 0.08 | 0.00 | 100 | 1013.6 | |
| 20260904122018 | 21 | 0.0 | 9.7 | 0.00 | 0.08 | 0.00 | 100 | 1013.4 | |
| 20260904121019 | 21 | 0.0 | 0.0 | 0.00 | 0.08 | 0.00 | 100 | 1013.2 | |
| 20260904120019 | 20 | 0.0 | 0.0 | 0.00 | 0.08 | 0.00 | 100 | 1013.6 | |
| 20260904115019 | 20 | 0.0 | 0.0 | 0.00 | 0.08 | 0.00 | 100 | 1013.5 | |
| 20260904114019 | 20 | 0.0 | 1.6 | 0.00 | 0.08 | 0.00 | 100 | 1013.6 | |
| 20260904113019 | 19 | 0.0 | 0.0 | 0.00 | 0.08 | 0.00 | 100 | 1013.7 | |
| 20260904112019 | 19 | 0.0 | 0.0 | 0.00 | 0.08 | 0.00 | 100 | 1013.6 | |
| 20260904111230 | 19 | 0.0 | 0.0 | 0.00 | 0.08 | 0.00 | 100 | 1013.4 | |
| 20260904110232 | 18 | 0.0 | 1.6 | 0.00 | 0.08 | 0.00 | 100 | 1013.4 | |
| 20260904105019 | 18 | 315 | 1.6 | 3.2 | 0.00 | 0.08 | 0.00 | 100 | 1013.3 |
| 20260904104442 | 18 | 0.0 | 3.2 | 0.00 | 0.10 | 0.00 | 100 | 1013.1 | |
| 20260904103229 | 18 | 0.0 | 0.0 | 0.00 | 0.13 | 0.00 | 100 | 1012.9 | |
| 20260904102019 | 18 | 0.0 | 0.0 | 0.00 | 0.15 | 0.00 | 100 | 1012.6 | |
| 20260904101019 | 18 | 0.0 | 0.0 | 0.00 | 0.20 | 0.00 | 100 | 1012.6 | |
| 20260904100019 | 18 | 0.0 | 0.0 | 0.00 | 0.25 | 0.00 | 100 | 1012.7 | |
| 20260904095019 | 18 | 0.0 | 0.0 | 0.00 | 0.25 | 0.00 | 100 | 1012.6 | |
| 20260904094019 | 18 | 0.0 | 0.0 | 0.00 | 0.33 | 0.00 | 100 | 1012.5 | |
| 20260904093019 | 18 | 0.0 | 0.0 | 0.00 | 0.41 | 0.00 | 100 | 1012.7 | |
| 20260904092444 | 18 | 0.0 | 0.0 | 0.00 | 0.46 | 0.00 | 100 | 1012.6 | |
| 20260904091019 | 18 | 0.0 | 0.0 | 0.00 | 0.51 | 0.00 | 100 | 1012.5 | |
| 20260904090019 | 19 | 0.0 | 0.0 | 0.00 | 0.53 | 0.00 | 100 | 1012.5 | |
| 20260904085019 | 19 | 0.0 | 0.0 | 0.00 | 0.61 | 0.00 | 100 | 1012.6 | |
| 20260904084019 | 19 | 0.0 | 1.6 | 0.00 | 0.76 | 0.00 | 100 | 1012.8 | |
| 20260904083019 | 19 | 0.0 | 0.0 | 0.00 | 0.76 | 0.00 | 100 | 1012.7 | |
| 20260904082019 | 19 | 0.0 | 0.0 | 0.00 | 0.76 | 0.00 | 100 | 1012.6 | |
| 20260904081232 | 18 | 0.0 | 0.0 | 0.00 | 0.76 | 0.00 | 100 | 1012.7 | |
| 20260904080019 | 18 | 0.0 | 0.0 | 0.00 | 0.76 | 0.00 | 100 | 1012.6 | |
| 20260904075019 | 18 | 0.0 | 0.0 | 0.00 | 0.79 | 0.00 | 100 | 1012.4 | |
| 20260904074019 | 18 | 0.0 | 0.0 | 0.00 | 0.79 | 0.00 | 100 | 1012.4 | |
| 20260904073019 | 18 | 0.0 | 0.0 | 0.00 | 0.79 | 0.00 | 100 | 1012.2 | |
| 20260904072019 | 18 | 0.0 | 0.0 | 0.00 | 0.84 | 0.00 | 100 | 1012.0 | |
| 20260904071019 | 18 | 0.0 | 0.0 | 0.00 | 1.04 | 0.00 | 100 | 1012.0 | |
| 20260904070019 | 18 | 0.0 | 0.0 | 0.00 | 1.07 | 0.00 | 100 | 1011.7 | |
| 20260904065230 | 18 | 0.0 | 0.0 | 0.00 | 1.09 | 0.00 | 100 | 1011.7 | |
| 20260904064020 | 18 | 0.0 | 0.0 | 0.00 | 1.09 | 0.00 | 100 | 1011.4 | |
| 20260904063019 | 18 | 0.0 | 0.0 | 0.00 | 1.09 | 0.00 | 100 | 1011.3 | |
| 20260904062019 | 18 | 0.0 | 0.0 | 0.00 | 1.09 | 0.00 | 100 | 1011.4 | |
| 20260904061019 | 19 | 0.0 | 0.0 | 0.00 | 1.09 | 0.00 | 100 | 1010.9 | |
| 20260904060019 | 19 | 0.0 | 0.0 | 0.00 | 1.09 | 0.00 | 100 | 1011.0 | |
| 20260904055019 | 19 | 0.0 | 4.8 | 0.00 | 1.09 | 0.00 | 100 | 1010.8 | |
| 20260904054019 | 19 | 315 | 1.6 | 8.0 | 0.00 | 1.09 | 0.00 | 100 | 1011.0 |
| 20260904053019 | 19 | 0.0 | 0.0 | 0.00 | 1.09 | 0.00 | 100 | 1011.1 | |
| 20260904052019 | 20 | 0.0 | 3.2 | 0.00 | 1.09 | 0.00 | 100 | 1011.1 | |
| 20260904051512 | 19 | 315 | 0.0 | 3.2 | 0.00 | 1.09 | 0.00 | 100 | 1010.3 |
| 20260904050520 | 20 | 0.0 | 0.0 | 0.00 | 1.09 | 0.00 | 100 | 1011.2 | |
| 20260904045520 | 20 | 0.0 | 1.6 | 0.00 | 1.09 | 0.00 | 100 | 1011.0 | |
| 20260904044520 | 20 | 0.0 | 3.2 | 0.00 | 1.09 | 0.00 | 100 | 1011.2 | |
| 20260904043943 | 20 | 315 | 1.6 | 4.8 | 0.00 | 1.09 | 0.00 | 100 | 1011.4 |
| 20260904042731 | 20 | 0.0 | 1.6 | 0.03 | 1.09 | 0.00 | 100 | 1011.7 | |
| 20260904041520 | 21 | 315 | 1.6 | 4.8 | 0.03 | 1.09 | 0.00 | 100 | 1011.8 |
| 20260904040946 | 21 | 315 | 1.6 | 4.8 | 0.03 | 1.09 | 0.00 | 100 | 1012.1 |
| 20260904035519 | 22 | 0.0 | 3.2 | 0.03 | 1.09 | 1.09 | 100 | 1012.3 | |
| 20260904034519 | 22 | 0.0 | 4.8 | 0.03 | 1.09 | 1.09 | 100 | 1012.4 | |
| 20260904033944 | 22 | 315 | 4.8 | 9.7 | 0.03 | 1.09 | 1.09 | 100 | 1012.6 |
| 20260904032519 | 22 | 315 | 4.8 | 11.3 | 0.00 | 1.07 | 1.07 | 100 | 1013.0 |
| 20260904031519 | 22 | 315 | 4.8 | 17.7 | 0.00 | 1.07 | 1.07 | 100 | 1013.1 |
| 20260904030519 | 22 | 225 | 6.4 | 12.9 | 0.00 | 1.07 | 1.07 | 100 | 1012.9 |
| 20260904025519 | 22 | 225 | 1.6 | 3.2 | 0.00 | 1.07 | 1.07 | 100 | 1013.1 |
| 20260904024519 | 22 | 0.0 | 0.0 | 0.03 | 1.07 | 1.07 | 100 | 1013.1 | |
| 20260904023519 | 23 | 0.0 | 0.0 | 0.05 | 1.07 | 1.07 | 100 | 1013.2 | |
| 20260904022520 | 23 | 0.0 | 1.6 | 0.05 | 1.07 | 1.07 | 100 | 1013.1 | |
| 20260904021519 | 23 | 0.0 | 3.2 | 0.05 | 1.07 | 1.07 | 100 | 1012.7 | |
| 20260904020519 | 23 | 0.0 | 0.0 | 0.05 | 1.07 | 1.07 | 100 | 1012.4 | |
| 20260904015520 | 23 | 0.0 | 0.0 | 0.05 | 1.07 | 1.07 | 100 | 1012.6 | |
| 20260904014519 | 23 | 225 | 1.6 | 3.2 | 0.03 | 1.04 | 1.04 | 100 | 1012.7 |
| 20260904013519 | 23 | 0.0 | 0.0 | 0.00 | 1.02 | 1.02 | 100 | 1012.4 | |
| 20260904012733 | 23 | 0.0 | 0.0 | 0.00 | 1.02 | 1.02 | 100 | 1012.4 | |
| 20260904011519 | 23 | 0.0 | 0.0 | 0.00 | 1.02 | 1.02 | 100 | 1012.3 | |
| 20260904010730 | 23 | 0.0 | 0.0 | 0.00 | 1.02 | 1.02 | 100 | 1012.2 | |
| 20260904005519 | 23 | 0.0 | 0.0 | 0.00 | 1.02 | 1.02 | 100 | 1012.2 | |
| 20260904004521 | 24 | 225 | 1.6 | 4.8 | 0.00 | 1.02 | 1.02 | 100 | 1012.2 |
| 20260904003519 | 24 | 0.0 | 0.0 | 0.00 | 1.02 | 1.02 | 100 | 1012.3 | |
| 20260904002519 | 25 | 0.0 | 0.0 | 0.00 | 1.02 | 1.02 | 100 | 1012.1 | |
| 20260904001519 | 25 | 0.0 | 0.0 | 0.00 | 1.02 | 1.02 | 100 | 1012.3 | |
| 20260904000519 | 25 | 0.0 | 0.0 | 0.00 | 1.02 | 1.02 | 100 | 1012.4 | |
| 20260903235519 | 25 | 0.0 | 0.0 | 0.00 | 1.02 | 1.02 | 100 | 1012.5 | |
| 20260903234732 | 26 | 0.0 | 0.0 | 0.00 | 1.02 | 1.02 | 100 | 1012.4 | |
| 20260903233519 | 26 | 0.0 | 0.0 | 0.00 | 1.02 | 1.02 | 100 | 1012.2 | |
| 20260903232520 | 26 | 0.0 | 0.0 | 0.00 | 1.02 | 1.02 | 100 | 1011.9 | |
| 20260903231943 | 27 | 0.0 | 0.0 | 0.00 | 1.02 | 1.02 | 100 | 1011.9 | |
| 20260903230519 | 27 | 0.0 | 0.0 | 0.00 | 1.02 | 1.02 | 100 | 1012.1 | |
| 20260903225520 | 27 | 0.0 | 0.0 | 0.00 | 1.02 | 1.02 | 100 | 1012.2 | |
| 20260903224946 | 27 | 0.0 | 0.0 | 0.00 | 1.02 | 1.02 | 100 | 1012.0 | |
| 20260903223520 | 28 | 0.0 | 0.0 | 0.00 | 1.02 | 1.02 | 4 | 1012.0 | |
| 20260903222519 | 28 | 0.0 | 0.0 | 0.00 | 1.02 | 1.02 | 16 | 1012.0 | |
| 20260903221731 | 28 | 0.0 | 1.6 | 0.00 | 1.02 | 1.02 | 29 | 1011.6 | |
| 20260903220520 | 28 | 0.0 | 1.6 | 0.00 | 1.02 | 1.02 | 39 | 1011.7 | |
| 20260903215519 | 29 | 225 | 1.6 | 4.8 | 0.00 | 1.02 | 1.02 | 50 | 1011.8 |
| 20260903214519 | 29 | 225 | 1.6 | 4.8 | 0.00 | 1.02 | 1.02 | 50 | 1011.9 |
| 20260903213520 | 29 | 225 | 3.2 | 8.0 | 0.00 | 1.02 | 1.02 | 57 | 1011.8 |
| 20260903212520 | 30 | 225 | 1.6 | 4.8 | 0.00 | 1.02 | 1.02 | 54 | 1011.8 |
| 20260903211520 | 29 | 225 | 1.6 | 8.0 | 0.00 | 1.02 | 1.02 | 49 | 1011.8 |
| 20260903210519 | 29 | 225 | 3.2 | 8.0 | 0.00 | 1.02 | 1.02 | 49 | 1011.7 |
| 20260903205519 | 29 | 225 | 6.4 | 16.1 | 0.00 | 1.02 | 1.02 | 54 | 1011.6 |
| 20260903204520 | 29 | 203 | 1.6 | 8.0 | 0.00 | 1.02 | 1.02 | 50 | 1011.7 |
| 20260903203519 | 29 | 203 | 4.8 | 8.0 | 0.00 | 1.02 | 1.02 | 51 | 1011.9 |
| 20260903202519 | 29 | 203 | 3.2 | 8.0 | 0.00 | 1.02 | 1.02 | 49 | 1011.9 |
| 20260903201520 | 29 | 203 | 4.8 | 9.7 | 0.00 | 1.02 | 1.02 | 48 | 1011.9 |
| 20260903200520 | 29 | 203 | 6.4 | 14.5 | 0.00 | 1.02 | 1.02 | 49 | 1012.0 |
| 20260903195729 | 30 | 203 | 4.8 | 11.3 | 0.00 | 1.02 | 1.02 | 54 | 1012.0 |
| 20260903194520 | 30 | 203 | 6.4 | 11.3 | 0.00 | 1.02 | 1.02 | 56 | 1012.1 |
| 20260903193520 | 30 | 225 | 4.8 | 12.9 | 0.00 | 1.02 | 1.02 | 55 | 1012.2 |
| 20260903192731 | 30 | 158 | 4.8 | 11.3 | 0.00 | 1.02 | 1.02 | 60 | 1012.3 |
| 20260903191520 | 30 | 293 | 6.4 | 16.1 | 0.00 | 1.02 | 1.02 | 61 | 1012.4 |
| 20260903190519 | 30 | 293 | 8.0 | 16.1 | 0.00 | 1.02 | 1.02 | 61 | 1012.5 |
| 20260903185520 | 29 | 270 | 8.0 | 12.9 | 0.00 | 1.02 | 1.02 | 62 | 1012.8 |
| 20260903184520 | 29 | 270 | 6.4 | 11.3 | 0.00 | 1.02 | 1.02 | 61 | 1013.0 |
| 20260903183520 | 29 | 315 | 6.4 | 14.5 | 0.00 | 1.02 | 1.02 | 57 | 1013.2 |
| 20260903182520 | 28 | 248 | 6.4 | 14.5 | 0.00 | 1.02 | 1.02 | 52 | 1013.2 |
| 20260903181520 | 28 | 225 | 6.4 | 12.9 | 0.00 | 1.02 | 1.02 | 55 | 1013.3 |
| 20260903180734 | 28 | 225 | 6.4 | 11.3 | 0.00 | 1.02 | 1.02 | 50 | 1013.5 |
| 20260903175520 | 28 | 158 | 4.8 | 11.3 | 0.00 | 1.02 | 1.02 | 50 | 1013.5 |
| 20260903174731 | 28 | 225 | 6.4 | 14.5 | 0.00 | 1.02 | 1.02 | 51 | 1013.8 |
| 20260903173520 | 28 | 203 | 6.4 | 11.3 | 0.00 | 1.04 | 1.02 | 53 | 1013.9 |
| 20260903172520 | 28 | 225 | 8.0 | 12.9 | 0.00 | 1.04 | 1.02 | 55 | 1013.8 |
| 20260903171520 | 27 | 225 | 6.4 | 16.1 | 0.00 | 1.04 | 1.02 | 46 | 1013.9 |
| 20260903170520 | 27 | 293 | 4.8 | 12.9 | 0.00 | 1.07 | 1.02 | 38 | 1013.9 |
| 20260903165519 | 27 | 293 | 6.4 | 14.5 | 0.00 | 1.07 | 1.02 | 21 | 1014.1 |
| 20260903164520 | 26 | 270 | 8.0 | 16.1 | 0.00 | 1.09 | 1.02 | 27 | 1014.4 |
| 20260903163520 | 26 | 203 | 8.0 | 17.7 | 0.00 | 1.14 | 1.02 | 28 | 1014.6 |
| 20260903162734 | 26 | 225 | 8.0 | 16.1 | 0.00 | 1.19 | 1.02 | 29 | 1014.7 |
| 20260903161519 | 26 | 248 | 8.0 | 14.5 | 0.00 | 1.24 | 1.02 | 27 | 1014.9 |
| 20260903160730 | 26 | 248 | 6.4 | 14.5 | 0.00 | 1.27 | 1.02 | 12 | 1015.1 |
| 20260903155520 | 25 | 270 | 6.4 | 12.9 | 0.00 | 1.32 | 1.02 | 100 | 1015.0 |
| 20260903154520 | 24 | 293 | 4.8 | 12.9 | 0.00 | 1.40 | 1.02 | 100 | 1015.2 |
| 20260903153520 | 23 | 293 | 6.4 | 12.9 | 0.00 | 1.42 | 1.02 | 100 | 1015.2 |
| 20260903152836 | 22 | 270 | 6.4 | 14.5 | 0.00 | 1.88 | 1.02 | 100 | 1015.4 |
| 20260903152623 | 21 | 270 | 4.8 | 12.9 | 0.00 | 2.29 | 1.02 | 100 | 1015.3 |
| 20260903150520 | 21 | 270 | 6.4 | 17.7 | 0.00 | 2.31 | 1.02 | 100 | 1015.4 |